When you browse on this site, cookies collect data to enhance your experience and personalize the content and advertising you see.
Visit our Privacy Policy to learn more. By continuing to use the site, you agree to this use of cookies and data.
  • In Hungary
  • List of Countries
  • For 7 days
  • Water Temperature
  • Weather Map
  • News
  • Weather Widgets
  • user-avatar
    Login

    Hourly Weather Amozoc de Mota

    Today, 3 April, Friday

    Time Temperature Precipitation Wind Pressure Humidity
    00:00 +16°C° 0 mm 1 mps 574 mmHg 72%
    01:00 +16°C° 0 mm 1 mps 573 mmHg 73%
    02:00 +14°C° 0 mm 0 mps 573 mmHg 75%
    03:00 +14°C° 0 mm 0 mps 573 mmHg 76%
    04:00 +14°C° 0 mm 0 mps 573 mmHg 77%
    05:00 +13°C° 0 mm 0 mps 572 mmHg 77%
    06:00 +15°C° 0 mm 0 mps 573 mmHg 71%
    07:00 +18°C° 0 mm 1 mps 574 mmHg 65%
    08:00 +18°C° 0 mm 2 mps 575 mmHg 59%
    09:00 +20°C° 0 mm 2 mps 576 mmHg 52%
    10:00 +23°C° 0 mm 2 mps 576 mmHg 45%
    11:00 +25°C° 0 mm 3 mps 576 mmHg 38%
    12:00 +25°C° 0 mm 3 mps 576 mmHg 35%
    13:00 +26°C° 0 mm 3 mps 576 mmHg 32%
    14:00 +27°C° 0 mm 4 mps 576 mmHg 30%
    15:00 +26°C° 0 mm 4 mps 576 mmHg 31%
    16:00 +25°C° 0 mm 3 mps 575 mmHg 33%
    17:00 +25°C° 0 mm 3 mps 575 mmHg 34%
    18:00 +22°C° 0.6 mm 3 mps 575 mmHg 39%
    19:00 +21°C° 0.6 mm 3 mps 575 mmHg 45%
    20:00 +20°C° 0.6 mm 3 mps 575 mmHg 50%
    21:00 +19°C° 0.2 mm 2 mps 575 mmHg 53%
    22:00 +19°C° 0.2 mm 2 mps 575 mmHg 56%
    23:00 +18°C° 0.2 mm 2 mps 575 mmHg 58%

    Tomorrow, 4 April, Saturday

    Time Temperature Precipitation Wind Pressure Humidity
    00:00 +19°C° 0.1 mm 1 mps 574 mmHg 61%
    01:00 +18°C° 0.1 mm 1 mps 574 mmHg 63%
    02:00 +16°C° 0.1 mm 1 mps 573 mmHg 65%
    03:00 +16°C° 0 mm 1 mps 573 mmHg 67%
    04:00 +15°C° 0 mm 0 mps 573 mmHg 68%
    05:00 +14°C° 0 mm 0 mps 573 mmHg 70%
    06:00 +15°C° 0 mm 0 mps 573 mmHg 64%
    07:00 +17°C° 0 mm 0 mps 574 mmHg 59%
    08:00 +18°C° 0 mm 0 mps 575 mmHg 54%
    09:00 +21°C° 0 mm 1 mps 576 mmHg 48%
    10:00 +23°C° 0 mm 1 mps 576 mmHg 42%
    11:00 +25°C° 0 mm 2 mps 577 mmHg 36%
    12:00 +25°C° 0.2 mm 2 mps 576 mmHg 37%
    13:00 +25°C° 0.2 mm 2 mps 576 mmHg 38%
    14:00 +24°C° 0.2 mm 3 mps 575 mmHg 40%
    15:00 +22°C° 0.6 mm 3 mps 574 mmHg 44%
    16:00 +21°C° 0.6 mm 3 mps 574 mmHg 49%
    17:00 +20°C° 0.6 mm 3 mps 573 mmHg 54%
    18:00 +19°C° 0.2 mm 3 mps 574 mmHg 55%
    19:00 +19°C° 0.2 mm 3 mps 574 mmHg 57%
    20:00 +19°C° 0.2 mm 2 mps 575 mmHg 59%
    21:00 +18°C° 0.1 mm 2 mps 574 mmHg 60%
    22:00 +19°C° 0.1 mm 1 mps 574 mmHg 61%
    23:00 +18°C° 0.1 mm 1 mps 574 mmHg 62%

    Day after tomorrow, 5 April, Sunday

    Time Temperature Precipitation Wind Pressure Humidity
    00:00 +18°C° 0 mm 1 mps 574 mmHg 64%
    01:00 +16°C° 0 mm 1 mps 573 mmHg 66%
    02:00 +16°C° 0 mm 1 mps 573 mmHg 67%
    03:00 +15°C° 0.1 mm 0 mps 573 mmHg 69%
    04:00 +14°C° 0.1 mm 0 mps 573 mmHg 70%
    05:00 +14°C° 0.1 mm 0 mps 573 mmHg 71%
    06:00 +15°C° 0 mm 0 mps 574 mmHg 65%
    07:00 +19°C° 0 mm 1 mps 575 mmHg 59%
    08:00 +20°C° 0 mm 1 mps 576 mmHg 52%
    09:00 +22°C° 0 mm 1 mps 576 mmHg 47%
    10:00 +24°C° 0 mm 2 mps 577 mmHg 41%
    11:00 +25°C° 0 mm 3 mps 577 mmHg 36%
    12:00 +26°C° 0 mm 3 mps 577 mmHg 34%
    13:00 +26°C° 0 mm 4 mps 577 mmHg 33%
    14:00 +26°C° 0 mm 4 mps 576 mmHg 31%
    15:00 +26°C° 0 mm 4 mps 576 mmHg 32%
    16:00 +26°C° 0 mm 3 mps 576 mmHg 32%
    17:00 +25°C° 0 mm 3 mps 576 mmHg 32%
    18:00 +24°C° 0 mm 3 mps 576 mmHg 39%
    19:00 +21°C° 0 mm 3 mps 576 mmHg 46%
    20:00 +20°C° 0 mm 3 mps 576 mmHg 52%
    21:00 +19°C° 0.1 mm 2 mps 576 mmHg 56%
    22:00 +18°C° 0.1 mm 2 mps 576 mmHg 60%
    23:00 +18°C° 0.1 mm 2 mps 576 mmHg 63%

    6 April, Monday

    Time Temperature Precipitation Wind Pressure Humidity
    00:00 +18°C° 0 mm 1 mps 575 mmHg 65%
    01:00 +18°C° 0 mm 1 mps 575 mmHg 66%
    02:00 +16°C° 0 mm 1 mps 574 mmHg 67%
    03:00 +16°C° 0 mm 1 mps 574 mmHg 68%
    04:00 +15°C° 0 mm 1 mps 574 mmHg 69%
    05:00 +15°C° 0 mm 1 mps 574 mmHg 71%
    06:00 +18°C° 0 mm 1 mps 575 mmHg 65%
    07:00 +19°C° 0 mm 1 mps 576 mmHg 59%
    08:00 +20°C° 0 mm 2 mps 577 mmHg 53%
    09:00 +21°C° 0 mm 2 mps 578 mmHg 47%
    10:00 +24°C° 0 mm 3 mps 578 mmHg 42%
    11:00 +25°C° 0 mm 3 mps 579 mmHg 36%
    12:00 +26°C° 0 mm 4 mps 578 mmHg 34%
    13:00 +26°C° 0 mm 4 mps 578 mmHg 32%
    14:00 +26°C° 0 mm 4 mps 577 mmHg 30%
    15:00 +26°C° 0.1 mm 4 mps 577 mmHg 33%
    16:00 +25°C° 0.1 mm 4 mps 577 mmHg 35%
    17:00 +23°C° 0.1 mm 4 mps 577 mmHg 37%
    18:00 +22°C° 0.1 mm 4 mps 577 mmHg 43%
    19:00 +20°C° 0.1 mm 3 mps 577 mmHg 50%
    20:00 +19°C° 0.1 mm 2 mps 577 mmHg 56%
    21:00 +18°C° 0 mm 2 mps 576 mmHg 60%
    22:00 +19°C° 0 mm 1 mps 576 mmHg 63%
    23:00 +18°C° 0 mm 1 mps 576 mmHg 67%

    7 April, Tuesday

    Time Temperature Precipitation Wind Pressure Humidity
    00:00 +16°C° 0 mm 0 mps 576 mmHg 68%
    01:00 +15°C° 0 mm 0 mps 575 mmHg 70%
    02:00 +15°C° 0 mm 0 mps 575 mmHg 71%
    03:00 +14°C° 0 mm 0 mps 575 mmHg 73%
    04:00 +14°C° 0 mm 0 mps 575 mmHg 74%
    05:00 +14°C° 0 mm 0 mps 575 mmHg 75%
    06:00 +15°C° 0 mm 0 mps 576 mmHg 68%
    07:00 +19°C° 0 mm 1 mps 577 mmHg 60%
    08:00 +20°C° 0 mm 1 mps 578 mmHg 53%
    09:00 +22°C° 0 mm 1 mps 578 mmHg 46%
    10:00 +24°C° 0 mm 2 mps 579 mmHg 40%
    11:00 +26°C° 0 mm 2 mps 580 mmHg 33%
    12:00 +26°C° 0 mm 3 mps 579 mmHg 30%
    13:00 +27°C° 0 mm 4 mps 579 mmHg 28%
    14:00 +28°C° 0 mm 5 mps 578 mmHg 25%
    15:00 +27°C° 0 mm 4 mps 578 mmHg 25%
    16:00 +27°C° 0 mm 3 mps 578 mmHg 25%
    17:00 +26°C° 0 mm 3 mps 578 mmHg 25%
    18:00 +25°C° 0 mm 3 mps 578 mmHg 32%
    19:00 +23°C° 0 mm 2 mps 578 mmHg 39%
    20:00 +21°C° 0 mm 2 mps 578 mmHg 45%
    21:00 +20°C° 0 mm 2 mps 578 mmHg 49%
    22:00 +20°C° 0 mm 1 mps 577 mmHg 53%
    23:00 +20°C° 0 mm 1 mps 577 mmHg 57%

    8 April, Wednesday

    Time Temperature Precipitation Wind Pressure Humidity
    00:00 +17°C° 0 mm 0 mps 577 mmHg 59%
    01:00 +16°C° 0 mm 0 mps 576 mmHg 61%
    02:00 +16°C° 0 mm 0 mps 575 mmHg 62%
    03:00 +16°C° 0 mm 0 mps 575 mmHg 64%
    04:00 +15°C° 0 mm 0 mps 575 mmHg 66%
    05:00 +15°C° 0 mm 0 mps 575 mmHg 68%
    06:00 +16°C° 0 mm 0 mps 576 mmHg 62%
    07:00 +18°C° 0 mm 0 mps 577 mmHg 56%
    08:00 +19°C° 0 mm 0 mps 578 mmHg 50%
    09:00 +23°C° 0 mm 1 mps 579 mmHg 43%
    10:00 +25°C° 0 mm 1 mps 579 mmHg 36%
    11:00 +27°C° 0 mm 2 mps 580 mmHg 29%
    12:00 +27°C° 0 mm 3 mps 579 mmHg 27%
    13:00 +28°C° 0 mm 3 mps 579 mmHg 25%
    14:00 +28°C° 0 mm 4 mps 578 mmHg 23%
    15:00 +28°C° 0 mm 4 mps 578 mmHg 25%
    16:00 +27°C° 0 mm 4 mps 578 mmHg 27%
    17:00 +26°C° 0 mm 3 mps 577 mmHg 28%
    18:00 +24°C° 0.1 mm 3 mps 577 mmHg 35%
    19:00 +23°C° 0.1 mm 2 mps 577 mmHg 42%
    20:00 +20°C° 0.1 mm 2 mps 577 mmHg 49%
    21:00 +21°C° 0 mm 1 mps 577 mmHg 51%
    22:00 +20°C° 0 mm 1 mps 577 mmHg 54%
    23:00 +18°C° 0 mm 0 mps 577 mmHg 56%
    Show more